This is the latest recevied weather packets stored in our database for station/object SV4JYD-14. If no packets are shown the sender has not sent any weather packets the latest 10 day(s).
| Time | Temp. | Humidity | Pressure | Rain* | Wind** | Luminosity | Snow |
|---|---|---|---|---|---|---|---|
| 1787680195 | 32.22° C | 33% | 1012 hPa | 0 mm | - | - | - |
| 1787679294 | 32.22° C | 33% | 1012 hPa | 0 mm | - | - | - |
| 1787678393 | 32.22° C | 35% | 1012 hPa | 0 mm | - | - | - |
| 1787677493 | 32.22° C | 35% | 1012 hPa | 0 mm | - | - | - |
| 1787676592 | 33.33° C | 33% | 1011 hPa | 0 mm | - | - | - |
| 1787675692 | 32.78° C | 34% | 1011 hPa | 0 mm | - | - | - |
| 1787674787 | 33.33° C | 32% | 1011 hPa | 0 mm | - | - | - |
| 1787673887 | 33.33° C | 34% | 1011 hPa | 0 mm | - | - | - |
| 1787672986 | 33.33° C | 34% | 1011 hPa | 0 mm | - | - | - |
| 1787672086 | 33.33° C | 35% | 1011 hPa | 0 mm | - | - | - |
| 1787671186 | 33.33° C | 36% | 1011 hPa | 0 mm | - | - | - |
| 1787670285 | 33.89° C | 36% | 1011 hPa | 0 mm | - | - | - |
| 1787669385 | 33.89° C | 36% | 1011 hPa | 0 mm | - | - | - |
| 1787667420 | 33.89° C | 37% | 1012 hPa | 0 mm | - | - | - |
| 1787666519 | 33.89° C | 37% | 1011 hPa | 0 mm | - | - | - |
| 1787665619 | 33.89° C | 37% | 1011 hPa | 0 mm | - | - | - |
| 1787664719 | 33.33° C | 39% | 1011 hPa | 0 mm | - | - | - |
| 1787663818 | 32.22° C | 43% | 1012 hPa | 0 mm | - | - | - |
| 1787662913 | 31.67° C | 48% | 1011 hPa | 0 mm | - | - | - |
| 1787662013 | 31.67° C | 48% | 1011 hPa | 0 mm | - | - | - |
| 1787661112 | 33.89° C | 40% | 1011 hPa | 0 mm | - | - | - |
| 1787660212 | 31.11° C | 50% | 1012 hPa | 0 mm | - | - | - |
| 1787659312 | 33.89° C | 42% | 1012 hPa | 0 mm | - | - | - |
| 1787658412 | 33.33° C | 43% | 1012 hPa | 0 mm | - | - | - |
| 1787657511 | 32.78° C | 44% | 1012 hPa | 0 mm | - | - | - |
* Rain latest hour (hover to see other rain measurements)
** Current wind speed in m/s (hover to see current wind gust speed)